| time (UTC) | temp F | wind direction | speed MPH | gust MPH | rain 1hr in | rain 24hr in | rain mn in | humidity % | barometer mb |
| 20260510203056 | 61 | 234 | 4.0 | 0.0 | 0.00 | 0.00 | 0.03 | 83 | 1012.3 |
| 20260510201555 | 65 | 285 | 3.0 | 0.0 | 0.00 | 0.00 | 0.00 | 72 | 1011.8 |
| 20260510200108 | 66 | 290 | 4.0 | 0.0 | 0.00 | 0.00 | 0.00 | 74 | 1012.1 |
| 20260510194607 | 67 | 234 | 3.0 | 0.0 | 0.00 | 0.00 | 0.00 | 73 | 1012.2 |
| 20260510193109 | 67 | 281 | 3.0 | 0.0 | 0.00 | 0.00 | 0.00 | 72 | 1012.3 |
| 20260510191554 | 67 | 155 | 3.0 | 0.0 | 0.00 | 0.00 | 0.00 | 73 | 1012.1 |
| 20260510190055 | 67 | 264 | 3.0 | 0.0 | 0.00 | 0.00 | 0.00 | 70 | 1012.1 |
| 20260510184600 | 67 | 289 | 4.0 | 0.0 | 0.00 | 0.00 | 0.00 | 71 | 1012.2 |
| 20260510183052 | 68 | 192 | 4.0 | 0.0 | 0.00 | 0.00 | 0.00 | 72 | 1012.2 |
| 20260510181551 | 68 | 249 | 3.0 | 0.0 | 0.00 | 0.00 | 0.00 | 74 | 1012.2 |
| 20260510180054 | 68 | 163 | 4.0 | 0.0 | 0.00 | 0.00 | 0.00 | 71 | 1012.4 |
| 20260510174554 | 67 | 147 | 2.0 | 0.0 | 0.00 | 0.00 | 0.00 | 76 | 1012.5 |
| 20260510173045 | 66 | 183 | 3.0 | 0.0 | 0.00 | 0.00 | 0.00 | 76 | 1012.2 |
| 20260510171541 | 64 | 196 | 3.0 | 0.0 | 0.00 | 0.00 | 0.00 | 82 | 1012.3 |
| 20260510170041 | 64 | 217 | 3.0 | 0.0 | 0.00 | 0.00 | 0.00 | 80 | 1012.6 |
| 20260510164550 | 65 | 299 | 2.0 | 0.0 | 0.00 | 0.00 | 0.00 | 79 | 1012.4 |
| 20260510163040 | 65 | 221 | 3.0 | 0.0 | 0.00 | 0.00 | 0.00 | 79 | 1012.7 |
| 20260510161537 | 63 | 173 | 3.0 | 0.0 | 0.00 | 0.00 | 0.00 | 81 | 1012.7 |
| 20260510160037 | 63 | 289 | 4.0 | 0.0 | 0.00 | 0.00 | 0.00 | 82 | 1012.7 |
| 20260510154533 | 63 | 107 | 3.0 | 0.0 | 0.00 | 0.00 | 0.00 | 83 | 1012.9 |
| 20260510153032 | 62 | 192 | 3.0 | 0.0 | 0.00 | 0.00 | 0.00 | 85 | 1013.0 |
| 20260510151529 | 61 | 254 | 3.0 | 0.0 | 0.00 | 0.00 | 0.00 | 86 | 1013.0 |
| 20260510150028 | 61 | 286 | 2.0 | 0.0 | 0.00 | 0.00 | 0.00 | 87 | 1013.1 |
| 20260510144525 | 60 | 182 | 2.0 | 0.0 | 0.00 | 0.00 | 0.00 | 89 | 1012.9 |
| 20260510143020 | 58 | 207 | 1.0 | 0.0 | 0.00 | 0.00 | 0.00 | 91 | 1012.8 |
| 20260510141516 | 56 | 189 | 1.0 | 0.0 | 0.00 | 0.00 | 0.00 | 94 | 1012.8 |
| 20260510140014 | 55 | 279 | 1.0 | 0.0 | 0.00 | 0.00 | 0.00 | 95 | 1012.7 |
| 20260510134512 | 54 | 140 | 1.0 | 0.0 | 0.00 | 0.00 | 0.00 | 95 | 1012.6 |
| 20260510133010 | 53 | 220 | 1.0 | 0.0 | 0.00 | 0.00 | 0.00 | 95 | 1012.5 |
| 20260510131509 | 53 | 184 | 2.0 | 0.0 | 0.00 | 0.00 | 0.00 | 95 | 1012.7 |
| 20260510130009 | 53 | 223 | 1.0 | 0.0 | 0.00 | 0.00 | 0.00 | 96 | 1012.7 |
| 20260510124506 | 53 | 244 | 2.0 | 0.0 | 0.00 | 0.00 | 0.00 | 96 | 1012.6 |
| 20260510123005 | 52 | 234 | 1.0 | 0.0 | 0.00 | 0.00 | 0.00 | 96 | 1012.5 |
| 20260510121501 | 52 | 244 | 1.0 | 0.0 | 0.00 | 0.00 | 0.00 | 96 | 1012.3 |
| 20260510120058 | 51 | 306 | 1.0 | 0.0 | 0.00 | 0.00 | 0.00 | 96 | 1012.1 |
| 20260510114612 | 51 | 223 | 1.0 | 0.0 | 0.00 | 0.00 | 0.00 | 96 | 1012.0 |
| 20260510113059 | 50 | 174 | 0.0 | 0.0 | 0.00 | 0.00 | 0.00 | 96 | 1011.8 |
| 20260510111557 | 50 | 161 | 1.0 | 0.0 | 0.00 | 0.00 | 0.00 | 96 | 1011.7 |
| 20260510110054 | 50 | 157 | 0.0 | 0.0 | 0.00 | 0.00 | 0.00 | 96 | 1011.5 |
| 20260510104600 | 50 | 242 | 1.0 | 0.0 | 0.00 | 0.00 | 0.00 | 96 | 1011.5 |
| 20260510103053 | 50 | 216 | 1.0 | 0.0 | 0.00 | 0.00 | 0.00 | 96 | 1011.3 |
| 20260510101602 | 50 | 173 | 1.0 | 0.0 | 0.00 | 0.00 | 0.00 | 96 | 1011.3 |
| 20260510100101 | 50 | 220 | 2.0 | 0.0 | 0.00 | 0.00 | 0.00 | 96 | 1011.4 |
| 20260510094603 | 50 | 178 | 2.0 | 0.0 | 0.00 | 0.00 | 0.00 | 96 | 1011.6 |
| 20260510093052 | 49 | 223 | 2.0 | 0.0 | 0.00 | 0.00 | 0.00 | 96 | 1011.5 |
| 20260510091551 | 50 | 199 | 2.0 | 0.0 | 0.00 | 0.00 | 0.00 | 96 | 1011.5 |
| 20260510090052 | 50 | 289 | 1.0 | 0.0 | 0.00 | 0.00 | 0.00 | 96 | 1011.7 |
| 20260510084548 | 50 | 258 | 3.0 | 0.0 | 0.00 | 0.00 | 0.00 | 96 | 1011.8 |
| 20260510083047 | 50 | 248 | 1.0 | 0.0 | 0.00 | 0.00 | 0.00 | 96 | 1011.7 |
| 20260510081545 | 50 | 279 | 2.0 | 0.0 | 0.00 | 0.00 | 0.00 | 96 | 1011.7 |
| 20260510080048 | 50 | 240 | 1.0 | 0.0 | 0.00 | 0.00 | 0.00 | 96 | 1011.3 |
| 20260510074546 | 50 | 245 | 0.0 | 0.0 | 0.00 | 0.00 | 0.00 | 96 | 1011.1 |
| 20260510073046 | 50 | 245 | 0.0 | 0.0 | 0.00 | 0.00 | 0.00 | 96 | 1011.2 |
| 20260510071542 | 50 | 198 | 1.0 | 0.0 | 0.00 | 0.00 | 0.00 | 95 | 1011.2 |
| 20260510070055 | 50 | 198 | 1.0 | 0.0 | 0.00 | 0.00 | 0.00 | 95 | 1011.3 |
| 20260510064548 | 50 | 258 | 1.0 | 0.0 | 0.00 | 0.00 | 0.00 | 96 | 1011.3 |
| 20260510063043 | 50 | 227 | 1.0 | 0.0 | 0.00 | 0.00 | 0.00 | 96 | 1011.2 |
| 20260510061539 | 50 | 227 | 1.0 | 0.0 | 0.00 | 0.00 | 0.00 | 96 | 1010.8 |
| 20260510060041 | 50 | 209 | 0.0 | 0.0 | 0.00 | 0.00 | 0.00 | 96 | 1010.8 |
| 20260510054538 | 50 | 199 | 1.0 | 0.0 | 0.00 | 0.00 | 0.00 | 96 | 1010.9 |
| 20260510053036 | 50 | 232 | 1.0 | 0.0 | 0.00 | 0.00 | 0.00 | 95 | 1011.0 |
| 20260510051536 | 51 | 254 | 1.0 | 0.0 | 0.00 | 0.00 | 0.00 | 96 | 1011.2 |
| 20260510050035 | 51 | 264 | 0.0 | 0.0 | 0.00 | 0.00 | 0.00 | 96 | 1011.2 |
| 20260510044533 | 51 | 264 | 1.0 | 0.0 | 0.00 | 0.00 | 0.00 | 95 | 1011.1 |
| 20260510043033 | 51 | 209 | 1.0 | 0.0 | 0.00 | 0.00 | 0.00 | 95 | 1011.2 |
| 20260510041544 | 51 | 235 | 1.0 | 0.0 | 0.00 | 0.00 | 0.00 | 95 | 1011.0 |
| 20260510040028 | 51 | 212 | 1.0 | 0.0 | 0.00 | 0.00 | 0.00 | 95 | 1010.9 |
| 20260510034529 | 51 | 227 | 1.0 | 0.0 | 0.00 | 0.00 | 0.81 | 95 | 1010.9 |
| 20260510033026 | 51 | 177 | 2.0 | 0.0 | 0.00 | 0.00 | 0.81 | 95 | 1011.1 |
| 20260510031530 | 51 | 197 | 1.0 | 0.0 | 0.00 | 0.00 | 0.81 | 95 | 1011.2 |
| 20260510030026 | 51 | 231 | 1.0 | 0.0 | 0.00 | 0.00 | 0.81 | 95 | 1011.2 |
| 20260510024527 | 51 | 225 | 1.0 | 0.0 | 0.00 | 0.00 | 0.81 | 95 | 1011.1 |
| 20260510023025 | 51 | 107 | 1.0 | 0.0 | 0.00 | 0.00 | 0.81 | 95 | 1011.0 |
| 20260510021534 | 51 | 212 | 1.0 | 0.0 | 0.00 | 0.00 | 0.81 | 95 | 1011.1 |
| 20260510020029 | 51 | 262 | 0.0 | 0.0 | 0.00 | 0.00 | 0.81 | 95 | 1011.1 |
| 20260510014524 | 51 | 141 | 1.0 | 0.0 | 0.00 | 0.00 | 0.81 | 95 | 1011.1 |
| 20260510013025 | 51 | 148 | 1.0 | 0.0 | 0.00 | 0.00 | 0.81 | 95 | 1011.1 |
| 20260510011523 | 52 | 100 | 1.0 | 0.0 | 0.00 | 0.00 | 0.81 | 95 | 1010.9 |
| 20260510010023 | 52 | 119 | 0.0 | 0.0 | 0.00 | 0.00 | 0.81 | 95 | 1010.9 |
| 20260510004522 | 52 | 193 | 1.0 | 0.0 | 0.00 | 0.00 | 0.81 | 94 | 1010.7 |
| 20260510003022 | 52 | 115 | 0.0 | 0.0 | 0.00 | 0.00 | 0.81 | 94 | 1010.3 |
| 20260510001534 | 52 | 85 | 0.0 | 0.0 | 0.00 | 0.00 | 0.81 | 94 | 1010.4 |
| 20260510000020 | 52 | 85 | 1.0 | 0.0 | 0.00 | 0.00 | 0.81 | 94 | 1010.3 |
| 20260509234519 | 52 | 147 | 0.0 | 0.0 | 0.00 | 0.00 | 0.81 | 94 | 1010.5 |
| 20260509233019 | 52 | 147 | 0.0 | 0.0 | 0.00 | 0.00 | 0.81 | 94 | 1010.4 |
| 20260509231517 | 52 | 128 | 1.0 | 0.0 | 0.00 | 0.00 | 0.80 | 94 | 1010.5 |
| 20260509230019 | 52 | 111 | 1.0 | 0.0 | 0.00 | 0.00 | 0.78 | 94 | 1010.8 |
| 20260509224516 | 52 | 185 | 0.0 | 0.0 | 0.00 | 0.00 | 0.75 | 94 | 1011.1 |
| 20260509223016 | 52 | 189 | 0.0 | 0.0 | 0.00 | 0.00 | 0.70 | 94 | 1011.1 |
| 20260509221515 | 52 | 215 | 1.0 | 0.0 | 0.00 | 0.00 | 0.67 | 94 | 1011.2 |
| 20260509220015 | 53 | 259 | 1.0 | 0.0 | 0.00 | 0.00 | 0.65 | 94 | 1011.4 |
| 20260509214522 | 53 | 205 | 0.0 | 0.0 | 0.00 | 0.00 | 0.61 | 94 | 1011.5 |
| 20260509213013 | 53 | 217 | 1.0 | 0.0 | 0.00 | 0.00 | 0.59 | 94 | 1011.3 |
| 20260509211512 | 53 | 199 | 1.0 | 0.0 | 0.00 | 0.00 | 0.57 | 93 | 1011.2 |
| 20260509210013 | 53 | 259 | 1.0 | 0.0 | 0.00 | 0.00 | 0.57 | 93 | 1010.9 |
| 20260509204523 | 53 | 186 | 0.0 | 0.0 | 0.00 | 0.00 | 0.56 | 93 | 1011.0 |